owner,sensor,date,latitude,longitude,vertical_datum,wind_speed,wind_to_direction,wind_speed_of_gust,qcFlag 
COMPS,ioos:station:USF.COMPS:C10:1,2016-04-01T00:05:00Z,27.1690,-82.9260,3.0,2.869,138.145,3.493,'1111122,1111122,1111122' 
COMPS,ioos:station:USF.COMPS:C10:1,2016-04-01T00:35:00Z,27.1690,-82.9260,3.0,3.256,143.754,3.83,'1111122,1111122,1111122' 
COMPS,ioos:station:USF.COMPS:C10:1,2016-04-01T01:05:00Z,27.1690,-82.9260,3.0,3.372,145.861,3.923,'1111122,1111122,1111122' 
COMPS,ioos:station:USF.COMPS:C10:1,2016-04-01T01:35:00Z,27.1690,-82.9260,3.0,3.253,147.711,3.91,'1111122,1111122,1111122' 
COMPS,ioos:station:USF.COMPS:C10:1,2016-04-01T02:05:00Z,27.1690,-82.9260,3.0,3.19,149.89,3.927,'1111122,1111122,1111122' 
COMPS,ioos:station:USF.COMPS:C10:1,2016-04-01T02:35:00Z,27.1690,-82.9260,3.0,3.995,151.032,4.91,'1111122,1111122,1111122' 
COMPS,ioos:station:USF.COMPS:C10:1,2016-04-01T03:05:00Z,27.1690,-82.9260,3.0,4.454,153.364,5.24,'1111122,1111122,1111122' 
COMPS,ioos:station:USF.COMPS:C10:1,2016-04-01T03:35:00Z,27.1690,-82.9260,3.0,4.104,156.32,5.007,'1111122,1111122,1111122' 
COMPS,ioos:station:USF.COMPS:C10:1,2016-04-01T04:05:00Z,27.1690,-82.9260,3.0,3.471,151.932,4.32,'1111122,1111122,1111122' 
COMPS,ioos:station:USF.COMPS:C10:1,2016-04-01T04:35:00Z,27.1690,-82.9260,3.0,3.556,142.616,4.113,'1111122,1111122,1111122' 
COMPS,ioos:station:USF.COMPS:C10:1,2016-04-01T05:05:00Z,27.1690,-82.9260,3.0,3.47,145.675,4.203,'1111122,1111122,1111122' 
COMPS,ioos:station:USF.COMPS:C10:1,2016-04-01T05:35:00Z,27.1690,-82.9260,3.0,4.361,155.09,5.353,'1111122,1111122,1111122' 
COMPS,ioos:station:USF.COMPS:C10:1,2016-04-01T06:05:00Z,27.1690,-82.9260,3.0,5.247,153.05,6.327,'1111122,1111122,1111122' 
COMPS,ioos:station:USF.COMPS:C10:1,2016-04-01T06:35:00Z,27.1690,-82.9260,3.0,5.023,154.926,6.1,'1111122,1111122,1111122' 
COMPS,ioos:station:USF.COMPS:C10:1,2016-04-01T07:05:00Z,27.1690,-82.9260,3.0,4.833,165.317,5.923,'1111122,1111122,1111122' 
COMPS,ioos:station:USF.COMPS:C10:1,2016-04-01T07:35:00Z,27.1690,-82.9260,3.0,5.284,168.023,6.297,'1111122,1111122,1111122' 
COMPS,ioos:station:USF.COMPS:C10:1,2016-04-01T08:05:00Z,27.1690,-82.9260,3.0,4.641,166.791,5.573,'1111122,1111122,1111122' 
COMPS,ioos:station:USF.COMPS:C10:1,2016-04-01T08:35:00Z,27.1690,-82.9260,3.0,4.993,162.931,5.94,'1111122,1111122,1111122' 
COMPS,ioos:station:USF.COMPS:C10:1,2016-04-01T09:05:00Z,27.1690,-82.9260,3.0,4.905,158.426,5.747,'1111122,1111122,1111122' 
COMPS,ioos:station:USF.COMPS:C10:1,2016-04-01T09:35:00Z,27.1690,-82.9260,3.0,4.929,163.371,5.68,'1111122,1111122,1111122' 
COMPS,ioos:station:USF.COMPS:C10:1,2016-04-01T10:05:00Z,27.1690,-82.9260,3.0,4.564,165.159,5.417,'1111122,1111122,1111122' 
COMPS,ioos:station:USF.COMPS:C10:1,2016-04-01T10:35:00Z,27.1690,-82.9260,3.0,4.603,169.809,5.327,'1111122,1111122,1111122' 
COMPS,ioos:station:USF.COMPS:C10:1,2016-04-01T11:05:00Z,27.1690,-82.9260,3.0,4.853,159.514,5.88,'1111122,1111122,1111122' 
COMPS,ioos:station:USF.COMPS:C10:1,2016-04-01T11:35:00Z,27.1690,-82.9260,3.0,4.499,158.301,5.437,'1111122,1111122,1111122' 
COMPS,ioos:station:USF.COMPS:C10:1,2016-04-01T12:05:00Z,27.1690,-82.9260,3.0,4.249,162.091,4.88,'1111122,1111122,1111122' 
COMPS,ioos:station:USF.COMPS:C10:1,2016-04-01T12:35:00Z,27.1690,-82.9260,3.0,4.679,159.301,5.577,'1111122,1111122,1111122' 
COMPS,ioos:station:USF.COMPS:C10:1,2016-04-01T13:05:00Z,27.1690,-82.9260,3.0,4.791,160.101,5.6,'1111122,1111122,1111122' 
COMPS,ioos:station:USF.COMPS:C10:1,2016-04-01T13:35:00Z,27.1690,-82.9260,3.0,4.2,155.561,5.013,'1111122,1111122,1111122' 
COMPS,ioos:station:USF.COMPS:C10:1,2016-04-01T14:05:00Z,27.1690,-82.9260,3.0,4.721,152.67,5.857,'1111122,1111122,1111122' 
COMPS,ioos:station:USF.COMPS:C10:1,2016-04-01T14:35:00Z,27.1690,-82.9260,3.0,5.388,155.402,6.397,'1111122,1111122,1111122' 
COMPS,ioos:station:USF.COMPS:C10:1,2016-04-01T15:05:00Z,27.1690,-82.9260,3.0,4.368,155.006,5.313,'1111122,1111122,1111122' 
COMPS,ioos:station:USF.COMPS:C10:1,2016-04-01T15:35:00Z,27.1690,-82.9260,3.0,4.834,156.708,5.957,'1111122,1111122,1111122' 
COMPS,ioos:station:USF.COMPS:C10:1,2016-04-01T16:05:00Z,27.1690,-82.9260,3.0,4.99,166.815,5.817,'1111122,1111122,1111122' 
COMPS,ioos:station:USF.COMPS:C10:1,2016-04-01T16:35:00Z,27.1690,-82.9260,3.0,3.933,172.193,4.72,'1111122,1111122,1111122' 
COMPS,ioos:station:USF.COMPS:C10:1,2016-04-01T17:05:00Z,27.1690,-82.9260,3.0,5.296,170.005,6.157,'1111122,1111122,1111122' 
COMPS,ioos:station:USF.COMPS:C10:1,2016-04-01T17:35:00Z,27.1690,-82.9260,3.0,4.014,180.821,4.87,'1111122,1111122,1111122' 
COMPS,ioos:station:USF.COMPS:C10:1,2016-04-01T18:05:00Z,27.1690,-82.9260,3.0,2.953,179.919,3.49,'1111122,1111122,1111122' 
COMPS,ioos:station:USF.COMPS:C10:1,2016-04-01T18:35:00Z,27.1690,-82.9260,3.0,2.646,165.33,3.1,'1111122,1111122,1111122' 
COMPS,ioos:station:USF.COMPS:C10:1,2016-04-01T19:05:00Z,27.1690,-82.9260,3.0,3.642,163.025,4.27,'1111122,1111122,1111122' 
COMPS,ioos:station:USF.COMPS:C10:1,2016-04-01T19:35:00Z,27.1690,-82.9260,3.0,4.082,172.206,4.96,'1111122,1111122,1111122' 
COMPS,ioos:station:USF.COMPS:C10:1,2016-04-01T20:05:00Z,27.1690,-82.9260,3.0,4.709,167.735,5.58,'1111122,1111122,1111122' 
COMPS,ioos:station:USF.COMPS:C10:1,2016-04-01T20:35:00Z,27.1690,-82.9260,3.0,4.576,162.852,5.377,'1111122,1111122,1111122' 
COMPS,ioos:station:USF.COMPS:C10:1,2016-04-01T21:05:00Z,27.1690,-82.9260,3.0,3.969,162.615,4.683,'1111122,1111122,1111122' 
COMPS,ioos:station:USF.COMPS:C10:1,2016-04-01T21:35:00Z,27.1690,-82.9260,3.0,4.015,151.89,4.97,'1111122,1111122,1111122' 
COMPS,ioos:station:USF.COMPS:C10:1,2016-04-01T22:05:00Z,27.1690,-82.9260,3.0,4.025,150.791,4.61,'1111122,1111122,1111122' 
COMPS,ioos:station:USF.COMPS:C10:1,2016-04-01T22:35:00Z,27.1690,-82.9260,3.0,4.531,146.995,5.377,'1111122,1111122,1111122' 
COMPS,ioos:station:USF.COMPS:C10:1,2016-04-01T23:05:00Z,27.1690,-82.9260,3.0,4.636,147.514,5.377,'1111122,1111122,1111122' 
COMPS,ioos:station:USF.COMPS:C10:1,2016-04-01T23:35:00Z,27.1690,-82.9260,3.0,4.569,148.561,5.533,'1111122,1111122,1111122' 
COMPS,ioos:station:USF.COMPS:C10:1,2016-04-02T00:05:00Z,27.1690,-82.9260,3.0,4.184,150.473,4.94,'1111122,1111122,1111122' 
COMPS,ioos:station:USF.COMPS:C10:1,2016-04-02T00:35:00Z,27.1690,-82.9260,3.0,4.081,153.917,4.733,'1111122,1111122,1111122' 
COMPS,ioos:station:USF.COMPS:C10:1,2016-04-02T01:05:00Z,27.1690,-82.9260,3.0,3.595,154.078,4.58,'1111122,1111122,1111122' 
COMPS,ioos:station:USF.COMPS:C10:1,2016-04-02T01:35:00Z,27.1690,-82.9260,3.0,3.686,150.388,4.297,'1111122,1111122,1111122' 
COMPS,ioos:station:USF.COMPS:C10:1,2016-04-02T02:05:00Z,27.1690,-82.9260,3.0,3.987,153.616,4.627,'1111122,1111122,1111122' 
COMPS,ioos:station:USF.COMPS:C10:1,2016-04-02T02:35:00Z,27.1690,-82.9260,3.0,4.666,155.811,5.35,'1111122,1111122,1111122' 
COMPS,ioos:station:USF.COMPS:C10:1,2016-04-02T03:05:00Z,27.1690,-82.9260,3.0,5.168,158.13,6.253,'1111122,1111122,1111122' 
COMPS,ioos:station:USF.COMPS:C10:1,2016-04-02T03:35:00Z,27.1690,-82.9260,3.0,5.338,161.257,6.6,'1111122,1111122,1111122' 
COMPS,ioos:station:USF.COMPS:C10:1,2016-04-02T04:05:00Z,27.1690,-82.9260,3.0,5.7,163.361,7.017,'1111122,1111122,1111122' 
COMPS,ioos:station:USF.COMPS:C10:1,2016-04-02T04:35:00Z,27.1690,-82.9260,3.0,6.863,164.831,8.103,'1111122,1111122,1111122' 
COMPS,ioos:station:USF.COMPS:C10:1,2016-04-02T05:05:00Z,27.1690,-82.9260,3.0,7.452,167.514,8.813,'1111122,1111122,1111122' 
COMPS,ioos:station:USF.COMPS:C10:1,2016-04-02T05:35:00Z,27.1690,-82.9260,3.0,6.887,173.814,8.177,'1111122,1111122,1111122' 
COMPS,ioos:station:USF.COMPS:C10:1,2016-04-02T06:05:00Z,27.1690,-82.9260,3.0,7.65,172.077,9.07,'1111122,1111122,1111122' 
COMPS,ioos:station:USF.COMPS:C10:1,2016-04-02T06:35:00Z,27.1690,-82.9260,3.0,8.047,173.672,10.13,'1111122,1111122,1111122' 
COMPS,ioos:station:USF.COMPS:C10:1,2016-04-02T07:05:00Z,27.1690,-82.9260,3.0,8.249,173.239,10.06,'1111122,1111122,1111122' 
COMPS,ioos:station:USF.COMPS:C10:1,2016-04-02T07:35:00Z,27.1690,-82.9260,3.0,8.157,176.61,9.727,'1111122,1111122,1111122' 
COMPS,ioos:station:USF.COMPS:C10:1,2016-04-02T08:05:00Z,27.1690,-82.9260,3.0,7.611,177.043,9.057,'1111122,1111122,1111122' 
COMPS,ioos:station:USF.COMPS:C10:1,2016-04-02T08:35:00Z,27.1690,-82.9260,3.0,7.641,178.427,9.393,'1111122,1111122,1111122' 
COMPS,ioos:station:USF.COMPS:C10:1,2016-04-02T09:05:00Z,27.1690,-82.9260,3.0,7.35,177.537,8.99,'1111122,1111122,1111122' 
COMPS,ioos:station:USF.COMPS:C10:1,2016-04-02T09:35:00Z,27.1690,-82.9260,3.0,6.126,181.371,8.07,'1111122,1111122,1111122' 
COMPS,ioos:station:USF.COMPS:C10:1,2016-04-02T10:05:00Z,27.1690,-82.9260,3.0,6.515,178.374,7.887,'1111122,1111122,1111122' 
COMPS,ioos:station:USF.COMPS:C10:1,2016-04-02T10:35:00Z,27.1690,-82.9260,3.0,6.181,181.925,7.607,'1111122,1111122,1111122' 
COMPS,ioos:station:USF.COMPS:C10:1,2016-04-02T11:05:00Z,27.1690,-82.9260,3.0,5.421,176.312,6.66,'1111122,1111122,1111122' 
COMPS,ioos:station:USF.COMPS:C10:1,2016-04-02T11:35:00Z,27.1690,-82.9260,3.0,4.578,183.774,5.61,'1111122,1111122,1111122' 
COMPS,ioos:station:USF.COMPS:C10:1,2016-04-02T12:05:00Z,27.1690,-82.9260,3.0,5.386,184.259,6.223,'1111122,1111122,1111122' 
COMPS,ioos:station:USF.COMPS:C10:1,2016-04-02T12:35:00Z,27.1690,-82.9260,3.0,5.279,178.419,6.257,'1111122,1111122,1111122' 
COMPS,ioos:station:USF.COMPS:C10:1,2016-04-02T13:05:00Z,27.1690,-82.9260,3.0,4.789,181.449,5.973,'1111122,1111122,1111122' 
COMPS,ioos:station:USF.COMPS:C10:1,2016-04-02T13:35:00Z,27.1690,-82.9260,3.0,6.312,181.611,8.093,'1111122,1111122,1111122' 
COMPS,ioos:station:USF.COMPS:C10:1,2016-04-02T14:05:00Z,27.1690,-82.9260,3.0,6.034,174.325,7.633,'1111122,1111122,1111122' 
COMPS,ioos:station:USF.COMPS:C10:1,2016-04-02T14:35:00Z,27.1690,-82.9260,3.0,7.541,175.818,8.897,'1111122,1111122,1111122' 
COMPS,ioos:station:USF.COMPS:C10:1,2016-04-02T15:05:00Z,27.1690,-82.9260,3.0,7.098,179.332,8.65,'1111122,1111122,1111122' 
COMPS,ioos:station:USF.COMPS:C10:1,2016-04-02T15:35:00Z,27.1690,-82.9260,3.0,6.155,174.005,7.543,'1111122,1111122,1111122' 
COMPS,ioos:station:USF.COMPS:C10:1,2016-04-02T16:05:00Z,27.1690,-82.9260,3.0,6.928,176.596,8.683,'1111122,1111122,1111122' 
COMPS,ioos:station:USF.COMPS:C10:1,2016-04-02T16:35:00Z,27.1690,-82.9260,3.0,6.242,178.047,7.573,'1111122,1111122,1111122' 
COMPS,ioos:station:USF.COMPS:C10:1,2016-04-02T17:05:00Z,27.1690,-82.9260,3.0,6.958,182.923,8.13,'1111122,1111122,1111122' 
COMPS,ioos:station:USF.COMPS:C10:1,2016-04-02T17:35:00Z,27.1690,-82.9260,3.0,6.013,176.914,8.153,'1111122,1111122,1111122' 
COMPS,ioos:station:USF.COMPS:C10:1,2016-04-02T18:05:00Z,27.1690,-82.9260,3.0,5.312,173.572,6.27,'1111122,1111122,1111122' 
COMPS,ioos:station:USF.COMPS:C10:1,2016-04-02T18:35:00Z,27.1690,-82.9260,3.0,6.166,175.304,8.653,'1111122,1111122,1111122' 
COMPS,ioos:station:USF.COMPS:C10:1,2016-04-02T19:05:00Z,27.1690,-82.9260,3.0,10.317,201.059,13.077,'1111122,1111122,1111122' 
COMPS,ioos:station:USF.COMPS:C10:1,2016-04-02T19:35:00Z,27.1690,-82.9260,3.0,8.589,197.376,10.293,'1111122,1111122,1111122' 
COMPS,ioos:station:USF.COMPS:C10:1,2016-04-02T20:05:00Z,27.1690,-82.9260,3.0,6.983,216.721,13.873,'1111122,1111122,1111122' 
COMPS,ioos:station:USF.COMPS:C10:1,2016-04-02T20:35:00Z,27.1690,-82.9260,3.0,6.9,242.141,8.95,'1111122,1111122,1111122' 
COMPS,ioos:station:USF.COMPS:C10:1,2016-04-02T21:05:00Z,27.1690,-82.9260,3.0,6.956,240.199,8.597,'1111122,1111122,1111122' 
COMPS,ioos:station:USF.COMPS:C10:1,2016-04-02T21:35:00Z,27.1690,-82.9260,3.0,6.065,260.694,7.263,'1111122,1111122,1111122' 
COMPS,ioos:station:USF.COMPS:C10:1,2016-04-02T22:05:00Z,27.1690,-82.9260,3.0,7.378,323.436,9.003,'1111122,1111122,1111122' 
COMPS,ioos:station:USF.COMPS:C10:1,2016-04-02T22:35:00Z,27.1690,-82.9260,3.0,6.692,332.544,8.29,'1111122,1111122,1111122' 
COMPS,ioos:station:USF.COMPS:C10:1,2016-04-03T00:05:00Z,27.1690,-82.9260,3.0,8.081,348.97,10.057,'1111122,1111122,1111122' 
COMPS,ioos:station:USF.COMPS:C10:1,2016-04-03T00:35:00Z,27.1690,-82.9260,3.0,6.654,352.287,8.077,'1111122,1111122,1111122' 
COMPS,ioos:station:USF.COMPS:C10:1,2016-04-03T03:05:00Z,27.1690,-82.9260,3.0,6.703,346.397,8.557,'1111122,1111122,1111122' 
COMPS,ioos:station:USF.COMPS:C10:1,2016-04-03T03:35:00Z,27.1690,-82.9260,3.0,6.397,338.645,7.82,'1111122,1111122,1111122' 
COMPS,ioos:station:USF.COMPS:C10:1,2016-04-03T04:05:00Z,27.1690,-82.9260,3.0,6.513,341.733,8.44,'1111122,1111122,1111122' 
COMPS,ioos:station:USF.COMPS:C10:1,2016-04-03T04:35:00Z,27.1690,-82.9260,3.0,7.823,343.507,9.197,'1111122,1111122,1111122' 
COMPS,ioos:station:USF.COMPS:C10:1,2016-04-03T05:05:00Z,27.1690,-82.9260,3.0,7.726,345.393,9.55,'1111122,1111122,1111122' 
COMPS,ioos:station:USF.COMPS:C10:1,2016-04-03T05:35:00Z,27.1690,-82.9260,3.0,8.154,349.042,10.05,'1111122,1111122,1111122' 
COMPS,ioos:station:USF.COMPS:C10:1,2016-04-03T13:05:00Z,27.1690,-82.9260,3.0,10.199,34.786,12.7,'1111122,1111122,1111122' 
COMPS,ioos:station:USF.COMPS:C10:1,2016-04-03T13:35:00Z,27.1690,-82.9260,3.0,10.748,39.183,13.523,'1111122,1111122,1111122' 
COMPS,ioos:station:USF.COMPS:C10:1,2016-04-03T19:05:00Z,27.1690,-82.9260,3.0,5.028,29.054,6.83,'1111122,1111122,1111122' 
COMPS,ioos:station:USF.COMPS:C10:1,2016-04-03T19:35:00Z,27.1690,-82.9260,3.0,4.271,30.902,5.523,'1111122,1111122,1111122' 
COMPS,ioos:station:USF.COMPS:C10:1,2016-04-03T20:05:00Z,27.1690,-82.9260,3.0,4.035,13.428,5.107,'1111122,1111122,1111122' 
COMPS,ioos:station:USF.COMPS:C10:1,2016-04-03T20:35:00Z,27.1690,-82.9260,3.0,4.398,0.077,6.03,'1111122,1111122,1111122' 
COMPS,ioos:station:USF.COMPS:C10:1,2016-04-03T23:05:00Z,27.1690,-82.9260,3.0,4.049,340.91,5.47,'1111122,1111122,1111122' 
COMPS,ioos:station:USF.COMPS:C10:1,2016-04-03T23:35:00Z,27.1690,-82.9260,3.0,4.317,335.435,5.593,'1111122,1111122,1111122' 
COMPS,ioos:station:USF.COMPS:C10:1,2016-04-04T00:05:00Z,27.1690,-82.9260,3.0,4.249,344.88,5.233,'1111122,1111122,1111122' 
COMPS,ioos:station:USF.COMPS:C10:1,2016-04-04T00:35:00Z,27.1690,-82.9260,3.0,4.5,347.121,5.967,'1111122,1111122,1111122' 
COMPS,ioos:station:USF.COMPS:C10:1,2016-04-04T04:05:00Z,27.1690,-82.9260,3.0,4.967,359.457,6.323,'1111122,1111122,1111122' 
COMPS,ioos:station:USF.COMPS:C10:1,2016-04-04T04:35:00Z,27.1690,-82.9260,3.0,4.789,7.165,5.75,'1111122,1111122,1111122' 
COMPS,ioos:station:USF.COMPS:C10:1,2016-04-04T06:05:00Z,27.1690,-82.9260,3.0,6.12,41.757,7.82,'1111122,1111122,1111122' 
COMPS,ioos:station:USF.COMPS:C10:1,2016-04-04T06:35:00Z,27.1690,-82.9260,3.0,5.843,52.071,7.42,'1111122,1111122,1111122' 
COMPS,ioos:station:USF.COMPS:C10:1,2016-04-04T07:05:00Z,27.1690,-82.9260,3.0,5.829,49.699,7.393,'1111122,1111122,1111122' 
COMPS,ioos:station:USF.COMPS:C10:1,2016-04-04T07:35:00Z,27.1690,-82.9260,3.0,5.465,61.378,6.557,'1111122,1111122,1111122' 
COMPS,ioos:station:USF.COMPS:C10:1,2016-04-04T08:05:00Z,27.1690,-82.9260,3.0,4.082,74.601,5.19,'1111122,1111122,1111122' 
COMPS,ioos:station:USF.COMPS:C10:1,2016-04-04T08:35:00Z,27.1690,-82.9260,3.0,2.736,82.996,4.007,'1111122,1111122,1111122' 
COMPS,ioos:station:USF.COMPS:C10:1,2016-04-04T09:05:00Z,27.1690,-82.9260,3.0,3.227,67.394,4.563,'1111122,1111122,1111122' 
COMPS,ioos:station:USF.COMPS:C10:1,2016-04-04T09:35:00Z,27.1690,-82.9260,3.0,3.701,82.156,5.11,'1111122,1111122,1111122' 
COMPS,ioos:station:USF.COMPS:C10:1,2016-04-04T10:05:00Z,27.1690,-82.9260,3.0,1.704,30.687,2.953,'1111122,1111122,1111122' 
COMPS,ioos:station:USF.COMPS:C10:1,2016-04-04T10:35:00Z,27.1690,-82.9260,3.0,3.047,80.177,4.583,'1111122,1111122,1111122' 
COMPS,ioos:station:USF.COMPS:C10:1,2016-04-04T11:05:00Z,27.1690,-82.9260,3.0,3.488,92.044,4.663,'1111122,1111122,1111122' 
COMPS,ioos:station:USF.COMPS:C10:1,2016-04-04T11:35:00Z,27.1690,-82.9260,3.0,3.215,33.996,4.243,'1111122,1111122,1111122' 
COMPS,ioos:station:USF.COMPS:C10:1,2016-04-04T12:05:00Z,27.1690,-82.9260,3.0,4.363,34.946,5.57,'1111122,1111122,1111122' 
COMPS,ioos:station:USF.COMPS:C10:1,2016-04-04T12:35:00Z,27.1690,-82.9260,3.0,3.973,67.222,4.787,'1111122,1111122,1111122' 
COMPS,ioos:station:USF.COMPS:C10:1,2016-04-04T13:05:00Z,27.1690,-82.9260,3.0,3.475,57.973,4.947,'1111122,1111122,1111122' 
COMPS,ioos:station:USF.COMPS:C10:1,2016-04-04T13:35:00Z,27.1690,-82.9260,3.0,3.529,73.111,4.75,'1111122,1111122,1111122' 
COMPS,ioos:station:USF.COMPS:C10:1,2016-04-04T15:05:00Z,27.1690,-82.9260,3.0,2.729,40.901,3.553,'1111122,1111122,1111122' 
COMPS,ioos:station:USF.COMPS:C10:1,2016-04-04T15:35:00Z,27.1690,-82.9260,3.0,2.879,20.939,3.77,'1111122,1111122,1111122' 
COMPS,ioos:station:USF.COMPS:C10:1,2016-04-04T16:05:00Z,27.1690,-82.9260,3.0,3.8,25.38,4.937,'1111122,1111122,1111122' 
COMPS,ioos:station:USF.COMPS:C10:1,2016-04-04T16:35:00Z,27.1690,-82.9260,3.0,4.203,15.005,5.453,'1111122,1111122,1111122' 
COMPS,ioos:station:USF.COMPS:C10:1,2016-04-04T17:05:00Z,27.1690,-82.9260,3.0,4.021,14.957,4.99,'1111122,1111122,1111122' 
COMPS,ioos:station:USF.COMPS:C10:1,2016-04-04T17:35:00Z,27.1690,-82.9260,3.0,3.464,13.274,4.443,'1111122,1111122,1111122' 
COMPS,ioos:station:USF.COMPS:C10:1,2016-04-04T19:05:00Z,27.1690,-82.9260,3.0,3.88,351.959,4.903,'1111122,1111122,1111122' 
COMPS,ioos:station:USF.COMPS:C10:1,2016-04-04T19:35:00Z,27.1690,-82.9260,3.0,4.167,336.441,5.267,'1111122,1111122,1111122' 
COMPS,ioos:station:USF.COMPS:C10:1,2016-04-04T20:05:00Z,27.1690,-82.9260,3.0,4.651,334.26,5.54,'1111122,1111122,1111122' 
COMPS,ioos:station:USF.COMPS:C10:1,2016-04-04T20:35:00Z,27.1690,-82.9260,3.0,5.331,338.957,6.583,'1111122,1111122,1111122' 
COMPS,ioos:station:USF.COMPS:C10:1,2016-04-04T21:05:00Z,27.1690,-82.9260,3.0,5.526,334.32,6.813,'1111122,1111122,1111122' 
COMPS,ioos:station:USF.COMPS:C10:1,2016-04-04T21:35:00Z,27.1690,-82.9260,3.0,5.931,332.052,7.13,'1111122,1111122,1111122' 
COMPS,ioos:station:USF.COMPS:C10:1,2016-04-04T22:05:00Z,27.1690,-82.9260,3.0,6.195,331.894,7.437,'1111122,1111122,1111122' 
COMPS,ioos:station:USF.COMPS:C10:1,2016-04-04T22:35:00Z,27.1690,-82.9260,3.0,6.849,338.605,8.243,'1111122,1111122,1111122' 
COMPS,ioos:station:USF.COMPS:C10:1,2016-04-04T23:05:00Z,27.1690,-82.9260,3.0,6.808,331.161,8.07,'1111122,1111122,1111122' 
COMPS,ioos:station:USF.COMPS:C10:1,2016-04-04T23:35:00Z,27.1690,-82.9260,3.0,6.944,335.235,8.147,'1111122,1111122,1111122' 
COMPS,ioos:station:USF.COMPS:C10:1,2016-04-05T00:05:00Z,27.1690,-82.9260,3.0,7.043,330.661,8.32,'1111122,1111122,1111122' 
COMPS,ioos:station:USF.COMPS:C10:1,2016-04-05T00:35:00Z,27.1690,-82.9260,3.0,7.29,330.046,8.76,'1111122,1111122,1111122' 
COMPS,ioos:station:USF.COMPS:C10:1,2016-04-05T01:05:00Z,27.1690,-82.9260,3.0,7.003,329.58,8.323,'1111122,1111122,1111122' 
COMPS,ioos:station:USF.COMPS:C10:1,2016-04-05T01:35:00Z,27.1690,-82.9260,3.0,6.868,331.68,8.203,'1111122,1111122,1111122' 
COMPS,ioos:station:USF.COMPS:C10:1,2016-04-05T02:05:00Z,27.1690,-82.9260,3.0,6.43,333.579,7.913,'1111122,1111122,1111122' 
COMPS,ioos:station:USF.COMPS:C10:1,2016-04-05T02:35:00Z,27.1690,-82.9260,3.0,6.735,333.345,8.277,'1111122,1111122,1111122' 
COMPS,ioos:station:USF.COMPS:C10:1,2016-04-05T03:05:00Z,27.1690,-82.9260,3.0,6.94,330.854,8.023,'1111122,1111122,1111122' 
COMPS,ioos:station:USF.COMPS:C10:1,2016-04-05T03:35:00Z,27.1690,-82.9260,3.0,6.774,329.557,7.99,'1111122,1111122,1111122' 
COMPS,ioos:station:USF.COMPS:C10:1,2016-04-05T04:05:00Z,27.1690,-82.9260,3.0,7.153,327.884,8.493,'1111122,1111122,1111122' 
COMPS,ioos:station:USF.COMPS:C10:1,2016-04-05T04:35:00Z,27.1690,-82.9260,3.0,6.805,330.42,7.937,'1111122,1111122,1111122' 
COMPS,ioos:station:USF.COMPS:C10:1,2016-04-05T05:05:00Z,27.1690,-82.9260,3.0,7.654,335.563,9.027,'1111122,1111122,1111122' 
COMPS,ioos:station:USF.COMPS:C10:1,2016-04-05T05:35:00Z,27.1690,-82.9260,3.0,7.879,336.266,9.623,'1111122,1111122,1111122' 
COMPS,ioos:station:USF.COMPS:C10:1,2016-04-05T07:05:00Z,27.1690,-82.9260,3.0,8.195,344.257,9.513,'1111122,1111122,1111122' 
COMPS,ioos:station:USF.COMPS:C10:1,2016-04-05T07:35:00Z,27.1690,-82.9260,3.0,8.304,343.896,10.687,'1111122,1111122,1111122' 
COMPS,ioos:station:USF.COMPS:C10:1,2016-04-05T08:05:00Z,27.1690,-82.9260,3.0,8.088,349.977,10.233,'1111122,1111122,1111122' 
COMPS,ioos:station:USF.COMPS:C10:1,2016-04-05T08:35:00Z,27.1690,-82.9260,3.0,8.495,352.64,10.26,'1111122,1111122,1111122' 
COMPS,ioos:station:USF.COMPS:C10:1,2016-04-05T09:05:00Z,27.1690,-82.9260,3.0,8.552,354.581,10.313,'1111122,1111122,1111122' 
COMPS,ioos:station:USF.COMPS:C10:1,2016-04-05T09:35:00Z,27.1690,-82.9260,3.0,7.858,0.678,9.993,'1111122,1111122,1111122' 
COMPS,ioos:station:USF.COMPS:C10:1,2016-04-05T10:05:00Z,27.1690,-82.9260,3.0,7.564,357.74,9.09,'1111122,1111122,1111122' 
COMPS,ioos:station:USF.COMPS:C10:1,2016-04-05T10:35:00Z,27.1690,-82.9260,3.0,7.066,352.446,8.643,'1111122,1111122,1111122' 
COMPS,ioos:station:USF.COMPS:C10:1,2016-04-05T12:05:00Z,27.1690,-82.9260,3.0,7.269,355.493,8.683,'1111122,1111122,1111122' 
COMPS,ioos:station:USF.COMPS:C10:1,2016-04-05T12:35:00Z,27.1690,-82.9260,3.0,7.037,353.786,8.737,'1111122,1111122,1111122' 
COMPS,ioos:station:USF.COMPS:C10:1,2016-04-05T15:05:00Z,27.1690,-82.9260,3.0,6.068,8.375,7.48,'1111122,1111122,1111122' 
COMPS,ioos:station:USF.COMPS:C10:1,2016-04-05T15:35:00Z,27.1690,-82.9260,3.0,5.882,10.351,7.327,'1111122,1111122,1111122' 
COMPS,ioos:station:USF.COMPS:C10:1,2016-04-05T18:05:00Z,27.1690,-82.9260,3.0,4.975,347.443,6.23,'1111122,1111122,1111122' 
COMPS,ioos:station:USF.COMPS:C10:1,2016-04-05T18:35:00Z,27.1690,-82.9260,3.0,5.368,344.933,6.613,'1111122,1111122,1111122' 
COMPS,ioos:station:USF.COMPS:C10:1,2016-04-05T19:05:00Z,27.1690,-82.9260,3.0,5.18,338.637,6.203,'1111122,1111122,1111122' 
COMPS,ioos:station:USF.COMPS:C10:1,2016-04-05T19:35:00Z,27.1690,-82.9260,3.0,5.428,334.867,6.37,'1111122,1111122,1111122' 
COMPS,ioos:station:USF.COMPS:C10:1,2016-04-05T20:05:00Z,27.1690,-82.9260,3.0,5.128,331.258,5.993,'1111122,1111122,1111122' 
COMPS,ioos:station:USF.COMPS:C10:1,2016-04-05T20:35:00Z,27.1690,-82.9260,3.0,6.452,326.86,7.75,'1111122,1111122,1111122' 
COMPS,ioos:station:USF.COMPS:C10:1,2016-04-05T21:05:00Z,27.1690,-82.9260,3.0,6.791,324.997,7.82,'1111122,1111122,1111122' 
COMPS,ioos:station:USF.COMPS:C10:1,2016-04-05T21:35:00Z,27.1690,-82.9260,3.0,6.87,325.797,8.127,'1111122,1111122,1111122' 
COMPS,ioos:station:USF.COMPS:C10:1,2016-04-05T22:05:00Z,27.1690,-82.9260,3.0,6.536,321.799,7.82,'1111122,1111122,1111122' 
COMPS,ioos:station:USF.COMPS:C10:1,2016-04-05T22:35:00Z,27.1690,-82.9260,3.0,5.852,320.152,7.07,'1111122,1111122,1111122' 
COMPS,ioos:station:USF.COMPS:C10:1,2016-04-05T23:05:00Z,27.1690,-82.9260,3.0,6.999,329.997,8.517,'1111122,1111122,1111122' 
COMPS,ioos:station:USF.COMPS:C10:1,2016-04-05T23:35:00Z,27.1690,-82.9260,3.0,7.195,333.581,8.56,'1111122,1111122,1111122' 
COMPS,ioos:station:USF.COMPS:C10:1,2016-04-06T00:05:00Z,27.1690,-82.9260,3.0,6.859,336.785,8.343,'1111122,1111122,1111122' 
COMPS,ioos:station:USF.COMPS:C10:1,2016-04-06T00:35:00Z,27.1690,-82.9260,3.0,6.881,333.997,8.393,'1111122,1111122,1111122' 
COMPS,ioos:station:USF.COMPS:C10:1,2016-04-06T01:05:00Z,27.1690,-82.9260,3.0,7.198,339.051,8.38,'1111122,1111122,1111122' 
COMPS,ioos:station:USF.COMPS:C10:1,2016-04-06T01:35:00Z,27.1690,-82.9260,3.0,6.932,343.961,8.387,'1111122,1111122,1111122' 
COMPS,ioos:station:USF.COMPS:C10:1,2016-04-06T02:05:00Z,27.1690,-82.9260,3.0,6.719,347.583,8.183,'1111122,1111122,1111122' 
COMPS,ioos:station:USF.COMPS:C10:1,2016-04-06T02:35:00Z,27.1690,-82.9260,3.0,5.597,358.183,6.52,'1111122,1111122,1111122' 
COMPS,ioos:station:USF.COMPS:C10:1,2016-04-06T03:05:00Z,27.1690,-82.9260,3.0,5.493,4.112,6.537,'1111122,1111122,1111122' 
COMPS,ioos:station:USF.COMPS:C10:1,2016-04-06T03:35:00Z,27.1690,-82.9260,3.0,4.995,6.682,5.9,'1111122,1111122,1111122' 
COMPS,ioos:station:USF.COMPS:C10:1,2016-04-06T05:05:00Z,27.1690,-82.9260,3.0,7.512,56.467,9.373,'1111122,1111122,1111122' 
COMPS,ioos:station:USF.COMPS:C10:1,2016-04-06T05:35:00Z,27.1690,-82.9260,3.0,7.952,80.215,9.82,'1111122,1111122,1111122' 
COMPS,ioos:station:USF.COMPS:C10:1,2016-04-06T06:05:00Z,27.1690,-82.9260,3.0,8.121,86.086,10.033,'1111122,1111122,1111122' 